<?xml version="1.0"?>
<gpx xmlns="http://www.topografix.com/GPX/1/1" xmlns:xsi="http://www.w3.org/2001/XMLSchema-instance" version="1.1" creator="GPX RubyGem 1.0.0 -- http://dougfales.github.io/gpx/" xsi:schemaLocation="http://www.topografix.com/GPX/1/1 http://www.topografix.com/GPX/1/1/gpx.xsd">
  <metadata>
    <name/>
    <time>2026-05-08T04:58:54+00:00</time>
    <bound minlat="90.0" minlon="180.0" maxlat="-90.0" maxlon="-180.0"/>
  </metadata>
  <trk>
    <name/>
    <trkseg>
      <trkpt lat="45.003664" lon="7.127015">
        <time>1970-01-01T00:00:00+00:00</time>
        <ele>869.0</ele>
      </trkpt>
      <trkpt lat="45.003438" lon="7.127356">
        <time>1970-01-01T00:00:00+00:00</time>
        <ele>867.0</ele>
      </trkpt>
      <trkpt lat="45.003077" lon="7.127662">
        <time>1970-01-01T00:00:00+00:00</time>
        <ele>866.0</ele>
      </trkpt>
      <trkpt lat="45.002798" lon="7.127865">
        <time>1970-01-01T00:00:00+00:00</time>
        <ele>867.0</ele>
      </trkpt>
      <trkpt lat="45.00276" lon="7.127702">
        <time>1970-01-01T00:00:00+00:00</time>
        <ele>866.0</ele>
      </trkpt>
      <trkpt lat="45.002764" lon="7.12753">
        <time>1970-01-01T00:00:00+00:00</time>
        <ele>864.0</ele>
      </trkpt>
      <trkpt lat="45.002748" lon="7.126983">
        <time>1970-01-01T00:00:00+00:00</time>
        <ele>863.0</ele>
      </trkpt>
      <trkpt lat="45.002741" lon="7.12674">
        <time>1970-01-01T00:00:00+00:00</time>
        <ele>866.0</ele>
      </trkpt>
      <trkpt lat="45.002809" lon="7.126605">
        <time>1970-01-01T00:00:00+00:00</time>
        <ele>867.0</ele>
      </trkpt>
      <trkpt lat="45.002816" lon="7.126465">
        <time>1970-01-01T00:00:00+00:00</time>
        <ele>868.0</ele>
      </trkpt>
      <trkpt lat="45.002919" lon="7.126232">
        <time>1970-01-01T00:00:00+00:00</time>
        <ele>869.0</ele>
      </trkpt>
      <trkpt lat="45.003094" lon="7.125953">
        <time>1970-01-01T00:00:00+00:00</time>
        <ele>871.0</ele>
      </trkpt>
      <trkpt lat="45.003279" lon="7.125487">
        <time>1970-01-01T00:00:00+00:00</time>
        <ele>874.0</ele>
      </trkpt>
      <trkpt lat="45.003348" lon="7.12524">
        <time>1970-01-01T00:00:00+00:00</time>
        <ele>877.0</ele>
      </trkpt>
      <trkpt lat="45.003363" lon="7.125084">
        <time>1970-01-01T00:00:00+00:00</time>
        <ele>881.0</ele>
      </trkpt>
      <trkpt lat="45.003298" lon="7.124784">
        <time>1970-01-01T00:00:00+00:00</time>
        <ele>891.0</ele>
      </trkpt>
      <trkpt lat="45.003317" lon="7.124301">
        <time>1970-01-01T00:00:00+00:00</time>
        <ele>901.0</ele>
      </trkpt>
      <trkpt lat="45.003257" lon="7.124038">
        <time>1970-01-01T00:00:00+00:00</time>
        <ele>908.0</ele>
      </trkpt>
      <trkpt lat="45.003113" lon="7.123593">
        <time>1970-01-01T00:00:00+00:00</time>
        <ele>922.0</ele>
      </trkpt>
      <trkpt lat="45.003177" lon="7.123518">
        <time>1970-01-01T00:00:00+00:00</time>
        <ele>918.0</ele>
      </trkpt>
      <trkpt lat="45.003344" lon="7.123384">
        <time>1970-01-01T00:00:00+00:00</time>
        <ele>916.0</ele>
      </trkpt>
      <trkpt lat="45.003435" lon="7.123384">
        <time>1970-01-01T00:00:00+00:00</time>
        <ele>916.0</ele>
      </trkpt>
      <trkpt lat="45.003499" lon="7.123341">
        <time>1970-01-01T00:00:00+00:00</time>
        <ele>917.0</ele>
      </trkpt>
      <trkpt lat="45.003632" lon="7.1231">
        <time>1970-01-01T00:00:00+00:00</time>
        <ele>924.0</ele>
      </trkpt>
      <trkpt lat="45.00377" lon="7.122813">
        <time>1970-01-01T00:00:00+00:00</time>
        <ele>934.0</ele>
      </trkpt>
      <trkpt lat="45.003766" lon="7.12276">
        <time>1970-01-01T00:00:00+00:00</time>
        <ele>937.0</ele>
      </trkpt>
      <trkpt lat="45.00369" lon="7.122783">
        <time>1970-01-01T00:00:00+00:00</time>
        <ele>938.0</ele>
      </trkpt>
      <trkpt lat="45.003678" lon="7.122767">
        <time>1970-01-01T00:00:00+00:00</time>
        <ele>939.0</ele>
      </trkpt>
      <trkpt lat="45.003792" lon="7.122322">
        <time>1970-01-01T00:00:00+00:00</time>
        <ele>958.0</ele>
      </trkpt>
      <trkpt lat="45.003966" lon="7.122043">
        <time>1970-01-01T00:00:00+00:00</time>
        <ele>966.0</ele>
      </trkpt>
      <trkpt lat="45.003977" lon="7.121962">
        <time>1970-01-01T00:00:00+00:00</time>
        <ele>969.0</ele>
      </trkpt>
      <trkpt lat="45.003902" lon="7.121877">
        <time>1970-01-01T00:00:00+00:00</time>
        <ele>974.0</ele>
      </trkpt>
      <trkpt lat="45.003572" lon="7.121732">
        <time>1970-01-01T00:00:00+00:00</time>
        <ele>987.0</ele>
      </trkpt>
      <trkpt lat="45.003484" lon="7.12164">
        <time>1970-01-01T00:00:00+00:00</time>
        <ele>994.0</ele>
      </trkpt>
      <trkpt lat="45.003488" lon="7.121356">
        <time>1970-01-01T00:00:00+00:00</time>
        <ele>1008.0</ele>
      </trkpt>
      <trkpt lat="45.003443" lon="7.121319">
        <time>1970-01-01T00:00:00+00:00</time>
        <ele>1011.0</ele>
      </trkpt>
      <trkpt lat="45.003336" lon="7.12141">
        <time>1970-01-01T00:00:00+00:00</time>
        <ele>1006.0</ele>
      </trkpt>
      <trkpt lat="45.003287" lon="7.121372">
        <time>1970-01-01T00:00:00+00:00</time>
        <ele>1008.0</ele>
      </trkpt>
      <trkpt lat="45.003204" lon="7.121147">
        <time>1970-01-01T00:00:00+00:00</time>
        <ele>1020.0</ele>
      </trkpt>
      <trkpt lat="45.003132" lon="7.12119">
        <time>1970-01-01T00:00:00+00:00</time>
        <ele>1017.0</ele>
      </trkpt>
      <trkpt lat="45.003101" lon="7.121286">
        <time>1970-01-01T00:00:00+00:00</time>
        <ele>1010.0</ele>
      </trkpt>
      <trkpt lat="45.003048" lon="7.121303">
        <time>1970-01-01T00:00:00+00:00</time>
        <ele>1008.0</ele>
      </trkpt>
      <trkpt lat="45.002976" lon="7.121217">
        <time>1970-01-01T00:00:00+00:00</time>
        <ele>1012.0</ele>
      </trkpt>
      <trkpt lat="45.002915" lon="7.121099">
        <time>1970-01-01T00:00:00+00:00</time>
        <ele>1017.0</ele>
      </trkpt>
      <trkpt lat="45.002862" lon="7.120948">
        <time>1970-01-01T00:00:00+00:00</time>
        <ele>1020.0</ele>
      </trkpt>
      <trkpt lat="45.002965" lon="7.120493">
        <time>1970-01-01T00:00:00+00:00</time>
        <ele>1039.0</ele>
      </trkpt>
      <trkpt lat="45.003109" lon="7.120267">
        <time>1970-01-01T00:00:00+00:00</time>
        <ele>1047.0</ele>
      </trkpt>
      <trkpt lat="45.003135" lon="7.120133">
        <time>1970-01-01T00:00:00+00:00</time>
        <ele>1052.0</ele>
      </trkpt>
      <trkpt lat="45.002999" lon="7.119876">
        <time>1970-01-01T00:00:00+00:00</time>
        <ele>1062.0</ele>
      </trkpt>
      <trkpt lat="45.002923" lon="7.119779">
        <time>1970-01-01T00:00:00+00:00</time>
        <ele>1066.0</ele>
      </trkpt>
      <trkpt lat="45.002893" lon="7.119677">
        <time>1970-01-01T00:00:00+00:00</time>
        <ele>1072.0</ele>
      </trkpt>
      <trkpt lat="45.002968" lon="7.119623">
        <time>1970-01-01T00:00:00+00:00</time>
        <ele>1077.0</ele>
      </trkpt>
      <trkpt lat="45.002923" lon="7.119527">
        <time>1970-01-01T00:00:00+00:00</time>
        <ele>1083.0</ele>
      </trkpt>
      <trkpt lat="45.002972" lon="7.119522">
        <time>1970-01-01T00:00:00+00:00</time>
        <ele>1084.0</ele>
      </trkpt>
      <trkpt lat="45.003033" lon="7.119479">
        <time>1970-01-01T00:00:00+00:00</time>
        <ele>1086.0</ele>
      </trkpt>
      <trkpt lat="45.003006" lon="7.119404">
        <time>1970-01-01T00:00:00+00:00</time>
        <ele>1090.0</ele>
      </trkpt>
      <trkpt lat="45.002942" lon="7.119345">
        <time>1970-01-01T00:00:00+00:00</time>
        <ele>1092.0</ele>
      </trkpt>
      <trkpt lat="45.00298" lon="7.119302">
        <time>1970-01-01T00:00:00+00:00</time>
        <ele>1095.0</ele>
      </trkpt>
      <trkpt lat="45.003188" lon="7.119339">
        <time>1970-01-01T00:00:00+00:00</time>
        <ele>1095.0</ele>
      </trkpt>
      <trkpt lat="45.003268" lon="7.119334">
        <time>1970-01-01T00:00:00+00:00</time>
        <ele>1096.0</ele>
      </trkpt>
      <trkpt lat="45.003192" lon="7.119227">
        <time>1970-01-01T00:00:00+00:00</time>
        <ele>1101.0</ele>
      </trkpt>
      <trkpt lat="45.002821" lon="7.118996">
        <time>1970-01-01T00:00:00+00:00</time>
        <ele>1115.0</ele>
      </trkpt>
      <trkpt lat="45.002927" lon="7.118915">
        <time>1970-01-01T00:00:00+00:00</time>
        <ele>1120.0</ele>
      </trkpt>
      <trkpt lat="45.002915" lon="7.118862">
        <time>1970-01-01T00:00:00+00:00</time>
        <ele>1124.0</ele>
      </trkpt>
      <trkpt lat="45.002711" lon="7.118792">
        <time>1970-01-01T00:00:00+00:00</time>
        <ele>1128.0</ele>
      </trkpt>
      <trkpt lat="45.002574" lon="7.118717">
        <time>1970-01-01T00:00:00+00:00</time>
        <ele>1131.0</ele>
      </trkpt>
      <trkpt lat="45.00243" lon="7.118771">
        <time>1970-01-01T00:00:00+00:00</time>
        <ele>1121.0</ele>
      </trkpt>
      <trkpt lat="45.002369" lon="7.118728">
        <time>1970-01-01T00:00:00+00:00</time>
        <ele>1119.0</ele>
      </trkpt>
      <trkpt lat="45.002312" lon="7.118647">
        <time>1970-01-01T00:00:00+00:00</time>
        <ele>1117.0</ele>
      </trkpt>
      <trkpt lat="45.002324" lon="7.118572">
        <time>1970-01-01T00:00:00+00:00</time>
        <ele>1122.0</ele>
      </trkpt>
      <trkpt lat="45.002384" lon="7.118486">
        <time>1970-01-01T00:00:00+00:00</time>
        <ele>1131.0</ele>
      </trkpt>
      <trkpt lat="45.002532" lon="7.11839">
        <time>1970-01-01T00:00:00+00:00</time>
        <ele>1144.0</ele>
      </trkpt>
      <trkpt lat="45.002525" lon="7.11832">
        <time>1970-01-01T00:00:00+00:00</time>
        <ele>1146.0</ele>
      </trkpt>
      <trkpt lat="45.002479" lon="7.11825">
        <time>1970-01-01T00:00:00+00:00</time>
        <ele>1147.0</ele>
      </trkpt>
      <trkpt lat="45.002483" lon="7.118138">
        <time>1970-01-01T00:00:00+00:00</time>
        <ele>1150.0</ele>
      </trkpt>
      <trkpt lat="45.002608" lon="7.118057">
        <time>1970-01-01T00:00:00+00:00</time>
        <ele>1156.0</ele>
      </trkpt>
      <trkpt lat="45.002653" lon="7.117934">
        <time>1970-01-01T00:00:00+00:00</time>
        <ele>1161.0</ele>
      </trkpt>
      <trkpt lat="45.002642" lon="7.117663">
        <time>1970-01-01T00:00:00+00:00</time>
        <ele>1164.0</ele>
      </trkpt>
      <trkpt lat="45.002726" lon="7.117403">
        <time>1970-01-01T00:00:00+00:00</time>
        <ele>1168.0</ele>
      </trkpt>
      <trkpt lat="45.002783" lon="7.117311">
        <time>1970-01-01T00:00:00+00:00</time>
        <ele>1171.0</ele>
      </trkpt>
      <trkpt lat="45.002842" lon="7.117067">
        <time>1970-01-01T00:00:00+00:00</time>
        <ele>1174.0</ele>
      </trkpt>
      <trkpt lat="45.002873" lon="7.116834">
        <time>1970-01-01T00:00:00+00:00</time>
        <ele>1178.0</ele>
      </trkpt>
      <trkpt lat="45.002912" lon="7.116775">
        <time>1970-01-01T00:00:00+00:00</time>
        <ele>1181.0</ele>
      </trkpt>
      <trkpt lat="45.002939" lon="7.116847">
        <time>1970-01-01T00:00:00+00:00</time>
        <ele>1181.0</ele>
      </trkpt>
      <trkpt lat="45.002955" lon="7.117104">
        <time>1970-01-01T00:00:00+00:00</time>
        <ele>1179.0</ele>
      </trkpt>
      <trkpt lat="45.002942" lon="7.117432">
        <time>1970-01-01T00:00:00+00:00</time>
        <ele>1177.0</ele>
      </trkpt>
      <trkpt lat="45.002965" lon="7.117591">
        <time>1970-01-01T00:00:00+00:00</time>
        <ele>1177.0</ele>
      </trkpt>
      <trkpt lat="45.002997" lon="7.117537">
        <time>1970-01-01T00:00:00+00:00</time>
        <ele>1178.0</ele>
      </trkpt>
      <trkpt lat="45.00306" lon="7.117278">
        <time>1970-01-01T00:00:00+00:00</time>
        <ele>1182.0</ele>
      </trkpt>
      <trkpt lat="45.003083" lon="7.116908">
        <time>1970-01-01T00:00:00+00:00</time>
        <ele>1188.0</ele>
      </trkpt>
      <trkpt lat="45.003118" lon="7.116805">
        <time>1970-01-01T00:00:00+00:00</time>
        <ele>1192.0</ele>
      </trkpt>
      <trkpt lat="45.003274" lon="7.117348">
        <time>1970-01-01T00:00:00+00:00</time>
        <ele>1196.0</ele>
      </trkpt>
      <trkpt lat="45.003351" lon="7.117474">
        <time>1970-01-01T00:00:00+00:00</time>
        <ele>1197.0</ele>
      </trkpt>
      <trkpt lat="45.003492" lon="7.117547">
        <time>1970-01-01T00:00:00+00:00</time>
        <ele>1201.0</ele>
      </trkpt>
      <trkpt lat="45.003889" lon="7.117611">
        <time>1970-01-01T00:00:00+00:00</time>
        <ele>1208.0</ele>
      </trkpt>
      <trkpt lat="45.003948" lon="7.117534">
        <time>1970-01-01T00:00:00+00:00</time>
        <ele>1212.0</ele>
      </trkpt>
      <trkpt lat="45.003885" lon="7.117451">
        <time>1970-01-01T00:00:00+00:00</time>
        <ele>1214.0</ele>
      </trkpt>
      <trkpt lat="45.003575" lon="7.117199">
        <time>1970-01-01T00:00:00+00:00</time>
        <ele>1214.0</ele>
      </trkpt>
      <trkpt lat="45.003501" lon="7.117071">
        <time>1970-01-01T00:00:00+00:00</time>
        <ele>1215.0</ele>
      </trkpt>
      <trkpt lat="45.003481" lon="7.116964">
        <time>1970-01-01T00:00:00+00:00</time>
        <ele>1215.0</ele>
      </trkpt>
      <trkpt lat="45.003524" lon="7.116754">
        <time>1970-01-01T00:00:00+00:00</time>
        <ele>1221.0</ele>
      </trkpt>
      <trkpt lat="45.003535" lon="7.116079">
        <time>1970-01-01T00:00:00+00:00</time>
        <ele>1232.0</ele>
      </trkpt>
      <trkpt lat="45.003588" lon="7.115816">
        <time>1970-01-01T00:00:00+00:00</time>
        <ele>1237.0</ele>
      </trkpt>
      <trkpt lat="45.003651" lon="7.115589">
        <time>1970-01-01T00:00:00+00:00</time>
        <ele>1242.0</ele>
      </trkpt>
      <trkpt lat="45.003691" lon="7.114629">
        <time>1970-01-01T00:00:00+00:00</time>
        <ele>1256.0</ele>
      </trkpt>
      <trkpt lat="45.003723" lon="7.114559">
        <time>1970-01-01T00:00:00+00:00</time>
        <ele>1259.0</ele>
      </trkpt>
      <trkpt lat="45.003859" lon="7.114944">
        <time>1970-01-01T00:00:00+00:00</time>
        <ele>1261.0</ele>
      </trkpt>
      <trkpt lat="45.003868" lon="7.114861">
        <time>1970-01-01T00:00:00+00:00</time>
        <ele>1263.0</ele>
      </trkpt>
      <trkpt lat="45.003841" lon="7.11462">
        <time>1970-01-01T00:00:00+00:00</time>
        <ele>1266.0</ele>
      </trkpt>
      <trkpt lat="45.003867" lon="7.114424">
        <time>1970-01-01T00:00:00+00:00</time>
        <ele>1272.0</ele>
      </trkpt>
      <trkpt lat="45.003911" lon="7.114446">
        <time>1970-01-01T00:00:00+00:00</time>
        <ele>1274.0</ele>
      </trkpt>
      <trkpt lat="45.003966" lon="7.114532">
        <time>1970-01-01T00:00:00+00:00</time>
        <ele>1276.0</ele>
      </trkpt>
      <trkpt lat="45.003971" lon="7.114454">
        <time>1970-01-01T00:00:00+00:00</time>
        <ele>1278.0</ele>
      </trkpt>
      <trkpt lat="45.003894" lon="7.114232">
        <time>1970-01-01T00:00:00+00:00</time>
        <ele>1278.0</ele>
      </trkpt>
      <trkpt lat="45.003827" lon="7.113914">
        <time>1970-01-01T00:00:00+00:00</time>
        <ele>1278.0</ele>
      </trkpt>
      <trkpt lat="45.003829" lon="7.113658">
        <time>1970-01-01T00:00:00+00:00</time>
        <ele>1283.0</ele>
      </trkpt>
      <trkpt lat="45.003941" lon="7.113202">
        <time>1970-01-01T00:00:00+00:00</time>
        <ele>1294.0</ele>
      </trkpt>
      <trkpt lat="45.003919" lon="7.112944">
        <time>1970-01-01T00:00:00+00:00</time>
        <ele>1296.0</ele>
      </trkpt>
      <trkpt lat="45.003854" lon="7.112711">
        <time>1970-01-01T00:00:00+00:00</time>
        <ele>1299.0</ele>
      </trkpt>
      <trkpt lat="45.003967" lon="7.112707">
        <time>1970-01-01T00:00:00+00:00</time>
        <ele>1302.0</ele>
      </trkpt>
      <trkpt lat="45.004057" lon="7.112832">
        <time>1970-01-01T00:00:00+00:00</time>
        <ele>1303.0</ele>
      </trkpt>
      <trkpt lat="45.004153" lon="7.113099">
        <time>1970-01-01T00:00:00+00:00</time>
        <ele>1303.0</ele>
      </trkpt>
      <trkpt lat="45.004225" lon="7.113673">
        <time>1970-01-01T00:00:00+00:00</time>
        <ele>1304.0</ele>
      </trkpt>
      <trkpt lat="45.004277" lon="7.113717">
        <time>1970-01-01T00:00:00+00:00</time>
        <ele>1306.0</ele>
      </trkpt>
      <trkpt lat="45.004334" lon="7.113588">
        <time>1970-01-01T00:00:00+00:00</time>
        <ele>1310.0</ele>
      </trkpt>
      <trkpt lat="45.00435" lon="7.113426">
        <time>1970-01-01T00:00:00+00:00</time>
        <ele>1312.0</ele>
      </trkpt>
      <trkpt lat="45.004449" lon="7.11319">
        <time>1970-01-01T00:00:00+00:00</time>
        <ele>1320.0</ele>
      </trkpt>
      <trkpt lat="45.004528" lon="7.113072">
        <time>1970-01-01T00:00:00+00:00</time>
        <ele>1326.0</ele>
      </trkpt>
      <trkpt lat="45.004578" lon="7.1129">
        <time>1970-01-01T00:00:00+00:00</time>
        <ele>1332.0</ele>
      </trkpt>
      <trkpt lat="45.004635" lon="7.112772">
        <time>1970-01-01T00:00:00+00:00</time>
        <ele>1335.0</ele>
      </trkpt>
      <trkpt lat="45.004669" lon="7.112525">
        <time>1970-01-01T00:00:00+00:00</time>
        <ele>1340.0</ele>
      </trkpt>
      <trkpt lat="45.004858" lon="7.112348">
        <time>1970-01-01T00:00:00+00:00</time>
        <ele>1348.0</ele>
      </trkpt>
      <trkpt lat="45.00501" lon="7.112251">
        <time>1970-01-01T00:00:00+00:00</time>
        <ele>1354.0</ele>
      </trkpt>
      <trkpt lat="45.005359" lon="7.112198">
        <time>1970-01-01T00:00:00+00:00</time>
        <ele>1357.0</ele>
      </trkpt>
      <trkpt lat="45.005627" lon="7.111868">
        <time>1970-01-01T00:00:00+00:00</time>
        <ele>1370.0</ele>
      </trkpt>
      <trkpt lat="45.005707" lon="7.111809">
        <time>1970-01-01T00:00:00+00:00</time>
        <ele>1373.0</ele>
      </trkpt>
      <trkpt lat="45.005718" lon="7.111653">
        <time>1970-01-01T00:00:00+00:00</time>
        <ele>1381.0</ele>
      </trkpt>
      <trkpt lat="45.00576" lon="7.111439">
        <time>1970-01-01T00:00:00+00:00</time>
        <ele>1389.0</ele>
      </trkpt>
      <trkpt lat="45.005828" lon="7.111326">
        <time>1970-01-01T00:00:00+00:00</time>
        <ele>1393.0</ele>
      </trkpt>
      <trkpt lat="45.005893" lon="7.111138">
        <time>1970-01-01T00:00:00+00:00</time>
        <ele>1402.0</ele>
      </trkpt>
      <trkpt lat="45.006041" lon="7.110924">
        <time>1970-01-01T00:00:00+00:00</time>
        <ele>1405.0</ele>
      </trkpt>
      <trkpt lat="45.006264" lon="7.110784">
        <time>1970-01-01T00:00:00+00:00</time>
        <ele>1397.0</ele>
      </trkpt>
      <trkpt lat="45.006378" lon="7.110833">
        <time>1970-01-01T00:00:00+00:00</time>
        <ele>1388.0</ele>
      </trkpt>
      <trkpt lat="45.006481" lon="7.110763">
        <time>1970-01-01T00:00:00+00:00</time>
        <ele>1386.0</ele>
      </trkpt>
      <trkpt lat="45.006541" lon="7.110666">
        <time>1970-01-01T00:00:00+00:00</time>
        <ele>1388.0</ele>
      </trkpt>
      <trkpt lat="45.006826" lon="7.110479">
        <time>1970-01-01T00:00:00+00:00</time>
        <ele>1381.0</ele>
      </trkpt>
      <trkpt lat="45.006921" lon="7.110355">
        <time>1970-01-01T00:00:00+00:00</time>
        <ele>1383.0</ele>
      </trkpt>
      <trkpt lat="45.006902" lon="7.10977">
        <time>1970-01-01T00:00:00+00:00</time>
        <ele>1407.0</ele>
      </trkpt>
      <trkpt lat="45.006928" lon="7.109658">
        <time>1970-01-01T00:00:00+00:00</time>
        <ele>1411.0</ele>
      </trkpt>
      <trkpt lat="45.007061" lon="7.109567">
        <time>1970-01-01T00:00:00+00:00</time>
        <ele>1408.0</ele>
      </trkpt>
      <trkpt lat="45.007175" lon="7.109572">
        <time>1970-01-01T00:00:00+00:00</time>
        <ele>1406.0</ele>
      </trkpt>
      <trkpt lat="45.007497" lon="7.10969">
        <time>1970-01-01T00:00:00+00:00</time>
        <ele>1394.0</ele>
      </trkpt>
      <trkpt lat="45.007611" lon="7.109663">
        <time>1970-01-01T00:00:00+00:00</time>
        <ele>1392.0</ele>
      </trkpt>
      <trkpt lat="45.007702" lon="7.109567">
        <time>1970-01-01T00:00:00+00:00</time>
        <ele>1397.0</ele>
      </trkpt>
      <trkpt lat="45.007838" lon="7.109465">
        <time>1970-01-01T00:00:00+00:00</time>
        <ele>1403.0</ele>
      </trkpt>
      <trkpt lat="45.007964" lon="7.109475">
        <time>1970-01-01T00:00:00+00:00</time>
        <ele>1399.0</ele>
      </trkpt>
      <trkpt lat="45.008191" lon="7.109272">
        <time>1970-01-01T00:00:00+00:00</time>
        <ele>1412.0</ele>
      </trkpt>
      <trkpt lat="45.008316" lon="7.109239">
        <time>1970-01-01T00:00:00+00:00</time>
        <ele>1411.0</ele>
      </trkpt>
      <trkpt lat="45.008388" lon="7.108971">
        <time>1970-01-01T00:00:00+00:00</time>
        <ele>1437.0</ele>
      </trkpt>
      <trkpt lat="45.008457" lon="7.108842">
        <time>1970-01-01T00:00:00+00:00</time>
        <ele>1449.0</ele>
      </trkpt>
      <trkpt lat="45.008574" lon="7.108714">
        <time>1970-01-01T00:00:00+00:00</time>
        <ele>1458.0</ele>
      </trkpt>
      <trkpt lat="45.008688" lon="7.108665">
        <time>1970-01-01T00:00:00+00:00</time>
        <ele>1453.0</ele>
      </trkpt>
      <trkpt lat="45.00879" lon="7.108708">
        <time>1970-01-01T00:00:00+00:00</time>
        <ele>1442.0</ele>
      </trkpt>
      <trkpt lat="45.008862" lon="7.108692">
        <time>1970-01-01T00:00:00+00:00</time>
        <ele>1438.0</ele>
      </trkpt>
      <trkpt lat="45.008897" lon="7.108574">
        <time>1970-01-01T00:00:00+00:00</time>
        <ele>1444.0</ele>
      </trkpt>
      <trkpt lat="45.008908" lon="7.108445">
        <time>1970-01-01T00:00:00+00:00</time>
        <ele>1451.0</ele>
      </trkpt>
      <trkpt lat="45.009033" lon="7.10815">
        <time>1970-01-01T00:00:00+00:00</time>
        <ele>1460.0</ele>
      </trkpt>
      <trkpt lat="45.009154" lon="7.107973">
        <time>1970-01-01T00:00:00+00:00</time>
        <ele>1461.0</ele>
      </trkpt>
      <trkpt lat="45.009352" lon="7.107925">
        <time>1970-01-01T00:00:00+00:00</time>
        <ele>1450.0</ele>
      </trkpt>
      <trkpt lat="45.009507" lon="7.107845">
        <time>1970-01-01T00:00:00+00:00</time>
        <ele>1444.0</ele>
      </trkpt>
      <trkpt lat="45.009579" lon="7.107786">
        <time>1970-01-01T00:00:00+00:00</time>
        <ele>1444.0</ele>
      </trkpt>
      <trkpt lat="45.00961" lon="7.1077">
        <time>1970-01-01T00:00:00+00:00</time>
        <ele>1446.0</ele>
      </trkpt>
      <trkpt lat="45.009583" lon="7.107614">
        <time>1970-01-01T00:00:00+00:00</time>
        <ele>1449.0</ele>
      </trkpt>
      <trkpt lat="45.009602" lon="7.107533">
        <time>1970-01-01T00:00:00+00:00</time>
        <ele>1451.0</ele>
      </trkpt>
      <trkpt lat="45.009685" lon="7.107491">
        <time>1970-01-01T00:00:00+00:00</time>
        <ele>1452.0</ele>
      </trkpt>
      <trkpt lat="45.009727" lon="7.107255">
        <time>1970-01-01T00:00:00+00:00</time>
        <ele>1460.0</ele>
      </trkpt>
      <trkpt lat="45.009769" lon="7.107131">
        <time>1970-01-01T00:00:00+00:00</time>
        <ele>1464.0</ele>
      </trkpt>
      <trkpt lat="45.010004" lon="7.106976">
        <time>1970-01-01T00:00:00+00:00</time>
        <ele>1468.0</ele>
      </trkpt>
      <trkpt lat="45.009989" lon="7.106879">
        <time>1970-01-01T00:00:00+00:00</time>
        <ele>1471.0</ele>
      </trkpt>
      <trkpt lat="45.010114" lon="7.106793">
        <time>1970-01-01T00:00:00+00:00</time>
        <ele>1476.0</ele>
      </trkpt>
      <trkpt lat="45.010133" lon="7.106707">
        <time>1970-01-01T00:00:00+00:00</time>
        <ele>1481.0</ele>
      </trkpt>
      <trkpt lat="45.010084" lon="7.106616">
        <time>1970-01-01T00:00:00+00:00</time>
        <ele>1486.0</ele>
      </trkpt>
      <trkpt lat="45.010103" lon="7.106471">
        <time>1970-01-01T00:00:00+00:00</time>
        <ele>1493.0</ele>
      </trkpt>
      <trkpt lat="45.010129" lon="7.106423">
        <time>1970-01-01T00:00:00+00:00</time>
        <ele>1496.0</ele>
      </trkpt>
      <trkpt lat="45.010235" lon="7.106326">
        <time>1970-01-01T00:00:00+00:00</time>
        <ele>1501.0</ele>
      </trkpt>
      <trkpt lat="45.010292" lon="7.106219">
        <time>1970-01-01T00:00:00+00:00</time>
        <ele>1503.0</ele>
      </trkpt>
      <trkpt lat="45.010376" lon="7.10623">
        <time>1970-01-01T00:00:00+00:00</time>
        <ele>1503.0</ele>
      </trkpt>
      <trkpt lat="45.010497" lon="7.10609">
        <time>1970-01-01T00:00:00+00:00</time>
        <ele>1503.0</ele>
      </trkpt>
      <trkpt lat="45.010512" lon="7.106042">
        <time>1970-01-01T00:00:00+00:00</time>
        <ele>1503.0</ele>
      </trkpt>
      <trkpt lat="45.010565" lon="7.106117">
        <time>1970-01-01T00:00:00+00:00</time>
        <ele>1503.0</ele>
      </trkpt>
      <trkpt lat="45.01066" lon="7.106176">
        <time>1970-01-01T00:00:00+00:00</time>
        <ele>1502.0</ele>
      </trkpt>
      <trkpt lat="45.010854" lon="7.106235">
        <time>1970-01-01T00:00:00+00:00</time>
        <ele>1504.0</ele>
      </trkpt>
      <trkpt lat="45.010937" lon="7.10624">
        <time>1970-01-01T00:00:00+00:00</time>
        <ele>1505.0</ele>
      </trkpt>
      <trkpt lat="45.011161" lon="7.106423">
        <time>1970-01-01T00:00:00+00:00</time>
        <ele>1508.0</ele>
      </trkpt>
      <trkpt lat="45.011237" lon="7.106493">
        <time>1970-01-01T00:00:00+00:00</time>
        <ele>1508.0</ele>
      </trkpt>
      <trkpt lat="45.011373" lon="7.106697">
        <time>1970-01-01T00:00:00+00:00</time>
        <ele>1503.0</ele>
      </trkpt>
      <trkpt lat="45.011475" lon="7.106777">
        <time>1970-01-01T00:00:00+00:00</time>
        <ele>1503.0</ele>
      </trkpt>
      <trkpt lat="45.011726" lon="7.107029">
        <time>1970-01-01T00:00:00+00:00</time>
        <ele>1504.0</ele>
      </trkpt>
      <trkpt lat="45.011859" lon="7.107212">
        <time>1970-01-01T00:00:00+00:00</time>
        <ele>1505.0</ele>
      </trkpt>
      <trkpt lat="45.011969" lon="7.107287">
        <time>1970-01-01T00:00:00+00:00</time>
        <ele>1505.0</ele>
      </trkpt>
      <trkpt lat="45.012124" lon="7.107335">
        <time>1970-01-01T00:00:00+00:00</time>
        <ele>1507.0</ele>
      </trkpt>
      <trkpt lat="45.012268" lon="7.107426">
        <time>1970-01-01T00:00:00+00:00</time>
        <ele>1505.0</ele>
      </trkpt>
      <trkpt lat="45.012352" lon="7.107496">
        <time>1970-01-01T00:00:00+00:00</time>
        <ele>1502.0</ele>
      </trkpt>
      <trkpt lat="45.012439" lon="7.107646">
        <time>1970-01-01T00:00:00+00:00</time>
        <ele>1496.0</ele>
      </trkpt>
      <trkpt lat="45.012439" lon="7.107646">
        <time>1970-01-01T00:00:00+00:00</time>
        <ele>1496.0</ele>
      </trkpt>
      <trkpt lat="45.012352" lon="7.107496">
        <time>1970-01-01T00:00:00+00:00</time>
        <ele>1502.0</ele>
      </trkpt>
      <trkpt lat="45.012268" lon="7.107426">
        <time>1970-01-01T00:00:00+00:00</time>
        <ele>1505.0</ele>
      </trkpt>
      <trkpt lat="45.012124" lon="7.107335">
        <time>1970-01-01T00:00:00+00:00</time>
        <ele>1507.0</ele>
      </trkpt>
      <trkpt lat="45.011969" lon="7.107287">
        <time>1970-01-01T00:00:00+00:00</time>
        <ele>1505.0</ele>
      </trkpt>
      <trkpt lat="45.011859" lon="7.107212">
        <time>1970-01-01T00:00:00+00:00</time>
        <ele>1505.0</ele>
      </trkpt>
      <trkpt lat="45.011726" lon="7.107029">
        <time>1970-01-01T00:00:00+00:00</time>
        <ele>1504.0</ele>
      </trkpt>
      <trkpt lat="45.011475" lon="7.106777">
        <time>1970-01-01T00:00:00+00:00</time>
        <ele>1503.0</ele>
      </trkpt>
      <trkpt lat="45.011373" lon="7.106697">
        <time>1970-01-01T00:00:00+00:00</time>
        <ele>1503.0</ele>
      </trkpt>
      <trkpt lat="45.011237" lon="7.106493">
        <time>1970-01-01T00:00:00+00:00</time>
        <ele>1508.0</ele>
      </trkpt>
      <trkpt lat="45.011161" lon="7.106423">
        <time>1970-01-01T00:00:00+00:00</time>
        <ele>1508.0</ele>
      </trkpt>
      <trkpt lat="45.010937" lon="7.10624">
        <time>1970-01-01T00:00:00+00:00</time>
        <ele>1505.0</ele>
      </trkpt>
      <trkpt lat="45.010854" lon="7.106235">
        <time>1970-01-01T00:00:00+00:00</time>
        <ele>1504.0</ele>
      </trkpt>
      <trkpt lat="45.01066" lon="7.106176">
        <time>1970-01-01T00:00:00+00:00</time>
        <ele>1502.0</ele>
      </trkpt>
      <trkpt lat="45.010565" lon="7.106117">
        <time>1970-01-01T00:00:00+00:00</time>
        <ele>1503.0</ele>
      </trkpt>
      <trkpt lat="45.010512" lon="7.106042">
        <time>1970-01-01T00:00:00+00:00</time>
        <ele>1503.0</ele>
      </trkpt>
      <trkpt lat="45.010497" lon="7.10609">
        <time>1970-01-01T00:00:00+00:00</time>
        <ele>1503.0</ele>
      </trkpt>
      <trkpt lat="45.010376" lon="7.10623">
        <time>1970-01-01T00:00:00+00:00</time>
        <ele>1503.0</ele>
      </trkpt>
      <trkpt lat="45.010292" lon="7.106219">
        <time>1970-01-01T00:00:00+00:00</time>
        <ele>1503.0</ele>
      </trkpt>
      <trkpt lat="45.010235" lon="7.106326">
        <time>1970-01-01T00:00:00+00:00</time>
        <ele>1501.0</ele>
      </trkpt>
      <trkpt lat="45.010129" lon="7.106423">
        <time>1970-01-01T00:00:00+00:00</time>
        <ele>1496.0</ele>
      </trkpt>
      <trkpt lat="45.010103" lon="7.106471">
        <time>1970-01-01T00:00:00+00:00</time>
        <ele>1493.0</ele>
      </trkpt>
      <trkpt lat="45.010084" lon="7.106616">
        <time>1970-01-01T00:00:00+00:00</time>
        <ele>1486.0</ele>
      </trkpt>
      <trkpt lat="45.010133" lon="7.106707">
        <time>1970-01-01T00:00:00+00:00</time>
        <ele>1481.0</ele>
      </trkpt>
      <trkpt lat="45.010114" lon="7.106793">
        <time>1970-01-01T00:00:00+00:00</time>
        <ele>1476.0</ele>
      </trkpt>
      <trkpt lat="45.009989" lon="7.106879">
        <time>1970-01-01T00:00:00+00:00</time>
        <ele>1471.0</ele>
      </trkpt>
      <trkpt lat="45.010004" lon="7.106976">
        <time>1970-01-01T00:00:00+00:00</time>
        <ele>1468.0</ele>
      </trkpt>
      <trkpt lat="45.009769" lon="7.107131">
        <time>1970-01-01T00:00:00+00:00</time>
        <ele>1464.0</ele>
      </trkpt>
      <trkpt lat="45.009727" lon="7.107255">
        <time>1970-01-01T00:00:00+00:00</time>
        <ele>1460.0</ele>
      </trkpt>
      <trkpt lat="45.009685" lon="7.107491">
        <time>1970-01-01T00:00:00+00:00</time>
        <ele>1452.0</ele>
      </trkpt>
      <trkpt lat="45.009602" lon="7.107533">
        <time>1970-01-01T00:00:00+00:00</time>
        <ele>1451.0</ele>
      </trkpt>
      <trkpt lat="45.009583" lon="7.107614">
        <time>1970-01-01T00:00:00+00:00</time>
        <ele>1449.0</ele>
      </trkpt>
      <trkpt lat="45.00961" lon="7.1077">
        <time>1970-01-01T00:00:00+00:00</time>
        <ele>1446.0</ele>
      </trkpt>
      <trkpt lat="45.009579" lon="7.107786">
        <time>1970-01-01T00:00:00+00:00</time>
        <ele>1444.0</ele>
      </trkpt>
      <trkpt lat="45.009507" lon="7.107845">
        <time>1970-01-01T00:00:00+00:00</time>
        <ele>1444.0</ele>
      </trkpt>
      <trkpt lat="45.009352" lon="7.107925">
        <time>1970-01-01T00:00:00+00:00</time>
        <ele>1450.0</ele>
      </trkpt>
      <trkpt lat="45.009154" lon="7.107973">
        <time>1970-01-01T00:00:00+00:00</time>
        <ele>1461.0</ele>
      </trkpt>
      <trkpt lat="45.009033" lon="7.10815">
        <time>1970-01-01T00:00:00+00:00</time>
        <ele>1460.0</ele>
      </trkpt>
      <trkpt lat="45.008908" lon="7.108445">
        <time>1970-01-01T00:00:00+00:00</time>
        <ele>1451.0</ele>
      </trkpt>
      <trkpt lat="45.008897" lon="7.108574">
        <time>1970-01-01T00:00:00+00:00</time>
        <ele>1444.0</ele>
      </trkpt>
      <trkpt lat="45.008862" lon="7.108692">
        <time>1970-01-01T00:00:00+00:00</time>
        <ele>1438.0</ele>
      </trkpt>
      <trkpt lat="45.00879" lon="7.108708">
        <time>1970-01-01T00:00:00+00:00</time>
        <ele>1442.0</ele>
      </trkpt>
      <trkpt lat="45.008688" lon="7.108665">
        <time>1970-01-01T00:00:00+00:00</time>
        <ele>1453.0</ele>
      </trkpt>
      <trkpt lat="45.008574" lon="7.108714">
        <time>1970-01-01T00:00:00+00:00</time>
        <ele>1458.0</ele>
      </trkpt>
      <trkpt lat="45.008457" lon="7.108842">
        <time>1970-01-01T00:00:00+00:00</time>
        <ele>1449.0</ele>
      </trkpt>
      <trkpt lat="45.008388" lon="7.108971">
        <time>1970-01-01T00:00:00+00:00</time>
        <ele>1437.0</ele>
      </trkpt>
      <trkpt lat="45.008316" lon="7.109239">
        <time>1970-01-01T00:00:00+00:00</time>
        <ele>1411.0</ele>
      </trkpt>
      <trkpt lat="45.008191" lon="7.109272">
        <time>1970-01-01T00:00:00+00:00</time>
        <ele>1412.0</ele>
      </trkpt>
      <trkpt lat="45.007964" lon="7.109475">
        <time>1970-01-01T00:00:00+00:00</time>
        <ele>1399.0</ele>
      </trkpt>
      <trkpt lat="45.007838" lon="7.109465">
        <time>1970-01-01T00:00:00+00:00</time>
        <ele>1403.0</ele>
      </trkpt>
      <trkpt lat="45.007702" lon="7.109567">
        <time>1970-01-01T00:00:00+00:00</time>
        <ele>1397.0</ele>
      </trkpt>
      <trkpt lat="45.007611" lon="7.109663">
        <time>1970-01-01T00:00:00+00:00</time>
        <ele>1392.0</ele>
      </trkpt>
      <trkpt lat="45.007497" lon="7.10969">
        <time>1970-01-01T00:00:00+00:00</time>
        <ele>1394.0</ele>
      </trkpt>
      <trkpt lat="45.007175" lon="7.109572">
        <time>1970-01-01T00:00:00+00:00</time>
        <ele>1406.0</ele>
      </trkpt>
      <trkpt lat="45.007061" lon="7.109567">
        <time>1970-01-01T00:00:00+00:00</time>
        <ele>1408.0</ele>
      </trkpt>
      <trkpt lat="45.006928" lon="7.109658">
        <time>1970-01-01T00:00:00+00:00</time>
        <ele>1411.0</ele>
      </trkpt>
      <trkpt lat="45.006902" lon="7.10977">
        <time>1970-01-01T00:00:00+00:00</time>
        <ele>1407.0</ele>
      </trkpt>
      <trkpt lat="45.006921" lon="7.110355">
        <time>1970-01-01T00:00:00+00:00</time>
        <ele>1383.0</ele>
      </trkpt>
      <trkpt lat="45.006826" lon="7.110479">
        <time>1970-01-01T00:00:00+00:00</time>
        <ele>1381.0</ele>
      </trkpt>
      <trkpt lat="45.006541" lon="7.110666">
        <time>1970-01-01T00:00:00+00:00</time>
        <ele>1388.0</ele>
      </trkpt>
      <trkpt lat="45.006481" lon="7.110763">
        <time>1970-01-01T00:00:00+00:00</time>
        <ele>1386.0</ele>
      </trkpt>
      <trkpt lat="45.006378" lon="7.110833">
        <time>1970-01-01T00:00:00+00:00</time>
        <ele>1388.0</ele>
      </trkpt>
      <trkpt lat="45.006264" lon="7.110784">
        <time>1970-01-01T00:00:00+00:00</time>
        <ele>1397.0</ele>
      </trkpt>
      <trkpt lat="45.006041" lon="7.110924">
        <time>1970-01-01T00:00:00+00:00</time>
        <ele>1405.0</ele>
      </trkpt>
      <trkpt lat="45.005893" lon="7.111138">
        <time>1970-01-01T00:00:00+00:00</time>
        <ele>1402.0</ele>
      </trkpt>
      <trkpt lat="45.005828" lon="7.111326">
        <time>1970-01-01T00:00:00+00:00</time>
        <ele>1393.0</ele>
      </trkpt>
      <trkpt lat="45.00576" lon="7.111439">
        <time>1970-01-01T00:00:00+00:00</time>
        <ele>1389.0</ele>
      </trkpt>
      <trkpt lat="45.005718" lon="7.111653">
        <time>1970-01-01T00:00:00+00:00</time>
        <ele>1381.0</ele>
      </trkpt>
      <trkpt lat="45.005707" lon="7.111809">
        <time>1970-01-01T00:00:00+00:00</time>
        <ele>1373.0</ele>
      </trkpt>
      <trkpt lat="45.005627" lon="7.111868">
        <time>1970-01-01T00:00:00+00:00</time>
        <ele>1370.0</ele>
      </trkpt>
      <trkpt lat="45.005359" lon="7.112198">
        <time>1970-01-01T00:00:00+00:00</time>
        <ele>1357.0</ele>
      </trkpt>
      <trkpt lat="45.00501" lon="7.112251">
        <time>1970-01-01T00:00:00+00:00</time>
        <ele>1354.0</ele>
      </trkpt>
      <trkpt lat="45.004858" lon="7.112348">
        <time>1970-01-01T00:00:00+00:00</time>
        <ele>1348.0</ele>
      </trkpt>
      <trkpt lat="45.004669" lon="7.112525">
        <time>1970-01-01T00:00:00+00:00</time>
        <ele>1340.0</ele>
      </trkpt>
      <trkpt lat="45.004635" lon="7.112772">
        <time>1970-01-01T00:00:00+00:00</time>
        <ele>1335.0</ele>
      </trkpt>
      <trkpt lat="45.004578" lon="7.1129">
        <time>1970-01-01T00:00:00+00:00</time>
        <ele>1332.0</ele>
      </trkpt>
      <trkpt lat="45.004528" lon="7.113072">
        <time>1970-01-01T00:00:00+00:00</time>
        <ele>1326.0</ele>
      </trkpt>
      <trkpt lat="45.004449" lon="7.11319">
        <time>1970-01-01T00:00:00+00:00</time>
        <ele>1320.0</ele>
      </trkpt>
      <trkpt lat="45.00435" lon="7.113426">
        <time>1970-01-01T00:00:00+00:00</time>
        <ele>1312.0</ele>
      </trkpt>
      <trkpt lat="45.004334" lon="7.113588">
        <time>1970-01-01T00:00:00+00:00</time>
        <ele>1310.0</ele>
      </trkpt>
      <trkpt lat="45.004277" lon="7.113717">
        <time>1970-01-01T00:00:00+00:00</time>
        <ele>1306.0</ele>
      </trkpt>
      <trkpt lat="45.004225" lon="7.113673">
        <time>1970-01-01T00:00:00+00:00</time>
        <ele>1304.0</ele>
      </trkpt>
      <trkpt lat="45.004153" lon="7.113099">
        <time>1970-01-01T00:00:00+00:00</time>
        <ele>1303.0</ele>
      </trkpt>
      <trkpt lat="45.004057" lon="7.112832">
        <time>1970-01-01T00:00:00+00:00</time>
        <ele>1303.0</ele>
      </trkpt>
      <trkpt lat="45.003967" lon="7.112707">
        <time>1970-01-01T00:00:00+00:00</time>
        <ele>1302.0</ele>
      </trkpt>
      <trkpt lat="45.003854" lon="7.112711">
        <time>1970-01-01T00:00:00+00:00</time>
        <ele>1299.0</ele>
      </trkpt>
      <trkpt lat="45.003919" lon="7.112944">
        <time>1970-01-01T00:00:00+00:00</time>
        <ele>1296.0</ele>
      </trkpt>
      <trkpt lat="45.003941" lon="7.113202">
        <time>1970-01-01T00:00:00+00:00</time>
        <ele>1294.0</ele>
      </trkpt>
      <trkpt lat="45.003829" lon="7.113658">
        <time>1970-01-01T00:00:00+00:00</time>
        <ele>1283.0</ele>
      </trkpt>
      <trkpt lat="45.003827" lon="7.113914">
        <time>1970-01-01T00:00:00+00:00</time>
        <ele>1278.0</ele>
      </trkpt>
      <trkpt lat="45.003894" lon="7.114232">
        <time>1970-01-01T00:00:00+00:00</time>
        <ele>1278.0</ele>
      </trkpt>
      <trkpt lat="45.003971" lon="7.114454">
        <time>1970-01-01T00:00:00+00:00</time>
        <ele>1278.0</ele>
      </trkpt>
      <trkpt lat="45.003966" lon="7.114532">
        <time>1970-01-01T00:00:00+00:00</time>
        <ele>1276.0</ele>
      </trkpt>
      <trkpt lat="45.003911" lon="7.114446">
        <time>1970-01-01T00:00:00+00:00</time>
        <ele>1274.0</ele>
      </trkpt>
      <trkpt lat="45.003867" lon="7.114424">
        <time>1970-01-01T00:00:00+00:00</time>
        <ele>1272.0</ele>
      </trkpt>
      <trkpt lat="45.003841" lon="7.11462">
        <time>1970-01-01T00:00:00+00:00</time>
        <ele>1266.0</ele>
      </trkpt>
      <trkpt lat="45.003868" lon="7.114861">
        <time>1970-01-01T00:00:00+00:00</time>
        <ele>1263.0</ele>
      </trkpt>
      <trkpt lat="45.003859" lon="7.114944">
        <time>1970-01-01T00:00:00+00:00</time>
        <ele>1261.0</ele>
      </trkpt>
      <trkpt lat="45.003723" lon="7.114559">
        <time>1970-01-01T00:00:00+00:00</time>
        <ele>1259.0</ele>
      </trkpt>
      <trkpt lat="45.003691" lon="7.114629">
        <time>1970-01-01T00:00:00+00:00</time>
        <ele>1256.0</ele>
      </trkpt>
      <trkpt lat="45.003651" lon="7.115589">
        <time>1970-01-01T00:00:00+00:00</time>
        <ele>1242.0</ele>
      </trkpt>
      <trkpt lat="45.003588" lon="7.115816">
        <time>1970-01-01T00:00:00+00:00</time>
        <ele>1237.0</ele>
      </trkpt>
      <trkpt lat="45.003535" lon="7.116079">
        <time>1970-01-01T00:00:00+00:00</time>
        <ele>1232.0</ele>
      </trkpt>
      <trkpt lat="45.003524" lon="7.116754">
        <time>1970-01-01T00:00:00+00:00</time>
        <ele>1221.0</ele>
      </trkpt>
      <trkpt lat="45.003481" lon="7.116964">
        <time>1970-01-01T00:00:00+00:00</time>
        <ele>1215.0</ele>
      </trkpt>
      <trkpt lat="45.003501" lon="7.117071">
        <time>1970-01-01T00:00:00+00:00</time>
        <ele>1215.0</ele>
      </trkpt>
      <trkpt lat="45.003575" lon="7.117199">
        <time>1970-01-01T00:00:00+00:00</time>
        <ele>1214.0</ele>
      </trkpt>
      <trkpt lat="45.003885" lon="7.117451">
        <time>1970-01-01T00:00:00+00:00</time>
        <ele>1214.0</ele>
      </trkpt>
      <trkpt lat="45.003948" lon="7.117534">
        <time>1970-01-01T00:00:00+00:00</time>
        <ele>1212.0</ele>
      </trkpt>
      <trkpt lat="45.003889" lon="7.117611">
        <time>1970-01-01T00:00:00+00:00</time>
        <ele>1208.0</ele>
      </trkpt>
      <trkpt lat="45.003492" lon="7.117547">
        <time>1970-01-01T00:00:00+00:00</time>
        <ele>1201.0</ele>
      </trkpt>
      <trkpt lat="45.003351" lon="7.117474">
        <time>1970-01-01T00:00:00+00:00</time>
        <ele>1197.0</ele>
      </trkpt>
      <trkpt lat="45.003274" lon="7.117348">
        <time>1970-01-01T00:00:00+00:00</time>
        <ele>1196.0</ele>
      </trkpt>
      <trkpt lat="45.003118" lon="7.116805">
        <time>1970-01-01T00:00:00+00:00</time>
        <ele>1192.0</ele>
      </trkpt>
      <trkpt lat="45.003083" lon="7.116908">
        <time>1970-01-01T00:00:00+00:00</time>
        <ele>1188.0</ele>
      </trkpt>
      <trkpt lat="45.00306" lon="7.117278">
        <time>1970-01-01T00:00:00+00:00</time>
        <ele>1182.0</ele>
      </trkpt>
      <trkpt lat="45.002997" lon="7.117537">
        <time>1970-01-01T00:00:00+00:00</time>
        <ele>1178.0</ele>
      </trkpt>
      <trkpt lat="45.002965" lon="7.117591">
        <time>1970-01-01T00:00:00+00:00</time>
        <ele>1177.0</ele>
      </trkpt>
      <trkpt lat="45.002942" lon="7.117432">
        <time>1970-01-01T00:00:00+00:00</time>
        <ele>1177.0</ele>
      </trkpt>
      <trkpt lat="45.002955" lon="7.117104">
        <time>1970-01-01T00:00:00+00:00</time>
        <ele>1179.0</ele>
      </trkpt>
      <trkpt lat="45.002939" lon="7.116847">
        <time>1970-01-01T00:00:00+00:00</time>
        <ele>1181.0</ele>
      </trkpt>
      <trkpt lat="45.002912" lon="7.116775">
        <time>1970-01-01T00:00:00+00:00</time>
        <ele>1181.0</ele>
      </trkpt>
      <trkpt lat="45.002873" lon="7.116834">
        <time>1970-01-01T00:00:00+00:00</time>
        <ele>1178.0</ele>
      </trkpt>
      <trkpt lat="45.002842" lon="7.117067">
        <time>1970-01-01T00:00:00+00:00</time>
        <ele>1174.0</ele>
      </trkpt>
      <trkpt lat="45.002783" lon="7.117311">
        <time>1970-01-01T00:00:00+00:00</time>
        <ele>1171.0</ele>
      </trkpt>
      <trkpt lat="45.002726" lon="7.117403">
        <time>1970-01-01T00:00:00+00:00</time>
        <ele>1168.0</ele>
      </trkpt>
      <trkpt lat="45.002642" lon="7.117663">
        <time>1970-01-01T00:00:00+00:00</time>
        <ele>1164.0</ele>
      </trkpt>
      <trkpt lat="45.002653" lon="7.117934">
        <time>1970-01-01T00:00:00+00:00</time>
        <ele>1161.0</ele>
      </trkpt>
      <trkpt lat="45.002608" lon="7.118057">
        <time>1970-01-01T00:00:00+00:00</time>
        <ele>1156.0</ele>
      </trkpt>
      <trkpt lat="45.002483" lon="7.118138">
        <time>1970-01-01T00:00:00+00:00</time>
        <ele>1150.0</ele>
      </trkpt>
      <trkpt lat="45.002479" lon="7.11825">
        <time>1970-01-01T00:00:00+00:00</time>
        <ele>1147.0</ele>
      </trkpt>
      <trkpt lat="45.002525" lon="7.11832">
        <time>1970-01-01T00:00:00+00:00</time>
        <ele>1146.0</ele>
      </trkpt>
      <trkpt lat="45.002532" lon="7.11839">
        <time>1970-01-01T00:00:00+00:00</time>
        <ele>1144.0</ele>
      </trkpt>
      <trkpt lat="45.002384" lon="7.118486">
        <time>1970-01-01T00:00:00+00:00</time>
        <ele>1131.0</ele>
      </trkpt>
      <trkpt lat="45.002324" lon="7.118572">
        <time>1970-01-01T00:00:00+00:00</time>
        <ele>1122.0</ele>
      </trkpt>
      <trkpt lat="45.002312" lon="7.118647">
        <time>1970-01-01T00:00:00+00:00</time>
        <ele>1117.0</ele>
      </trkpt>
      <trkpt lat="45.002369" lon="7.118728">
        <time>1970-01-01T00:00:00+00:00</time>
        <ele>1119.0</ele>
      </trkpt>
      <trkpt lat="45.00243" lon="7.118771">
        <time>1970-01-01T00:00:00+00:00</time>
        <ele>1121.0</ele>
      </trkpt>
      <trkpt lat="45.002574" lon="7.118717">
        <time>1970-01-01T00:00:00+00:00</time>
        <ele>1131.0</ele>
      </trkpt>
      <trkpt lat="45.002711" lon="7.118792">
        <time>1970-01-01T00:00:00+00:00</time>
        <ele>1128.0</ele>
      </trkpt>
      <trkpt lat="45.002915" lon="7.118862">
        <time>1970-01-01T00:00:00+00:00</time>
        <ele>1124.0</ele>
      </trkpt>
      <trkpt lat="45.002927" lon="7.118915">
        <time>1970-01-01T00:00:00+00:00</time>
        <ele>1120.0</ele>
      </trkpt>
      <trkpt lat="45.002821" lon="7.118996">
        <time>1970-01-01T00:00:00+00:00</time>
        <ele>1115.0</ele>
      </trkpt>
      <trkpt lat="45.003192" lon="7.119227">
        <time>1970-01-01T00:00:00+00:00</time>
        <ele>1101.0</ele>
      </trkpt>
      <trkpt lat="45.003268" lon="7.119334">
        <time>1970-01-01T00:00:00+00:00</time>
        <ele>1096.0</ele>
      </trkpt>
      <trkpt lat="45.003188" lon="7.119339">
        <time>1970-01-01T00:00:00+00:00</time>
        <ele>1095.0</ele>
      </trkpt>
      <trkpt lat="45.00298" lon="7.119302">
        <time>1970-01-01T00:00:00+00:00</time>
        <ele>1095.0</ele>
      </trkpt>
      <trkpt lat="45.002942" lon="7.119345">
        <time>1970-01-01T00:00:00+00:00</time>
        <ele>1092.0</ele>
      </trkpt>
      <trkpt lat="45.003006" lon="7.119404">
        <time>1970-01-01T00:00:00+00:00</time>
        <ele>1090.0</ele>
      </trkpt>
      <trkpt lat="45.003033" lon="7.119479">
        <time>1970-01-01T00:00:00+00:00</time>
        <ele>1086.0</ele>
      </trkpt>
      <trkpt lat="45.002972" lon="7.119522">
        <time>1970-01-01T00:00:00+00:00</time>
        <ele>1084.0</ele>
      </trkpt>
      <trkpt lat="45.002923" lon="7.119527">
        <time>1970-01-01T00:00:00+00:00</time>
        <ele>1083.0</ele>
      </trkpt>
      <trkpt lat="45.002968" lon="7.119623">
        <time>1970-01-01T00:00:00+00:00</time>
        <ele>1077.0</ele>
      </trkpt>
      <trkpt lat="45.002893" lon="7.119677">
        <time>1970-01-01T00:00:00+00:00</time>
        <ele>1072.0</ele>
      </trkpt>
      <trkpt lat="45.002923" lon="7.119779">
        <time>1970-01-01T00:00:00+00:00</time>
        <ele>1066.0</ele>
      </trkpt>
      <trkpt lat="45.002999" lon="7.119876">
        <time>1970-01-01T00:00:00+00:00</time>
        <ele>1062.0</ele>
      </trkpt>
      <trkpt lat="45.003135" lon="7.120133">
        <time>1970-01-01T00:00:00+00:00</time>
        <ele>1052.0</ele>
      </trkpt>
      <trkpt lat="45.003109" lon="7.120267">
        <time>1970-01-01T00:00:00+00:00</time>
        <ele>1047.0</ele>
      </trkpt>
      <trkpt lat="45.002965" lon="7.120493">
        <time>1970-01-01T00:00:00+00:00</time>
        <ele>1039.0</ele>
      </trkpt>
      <trkpt lat="45.002862" lon="7.120948">
        <time>1970-01-01T00:00:00+00:00</time>
        <ele>1020.0</ele>
      </trkpt>
      <trkpt lat="45.002915" lon="7.121099">
        <time>1970-01-01T00:00:00+00:00</time>
        <ele>1017.0</ele>
      </trkpt>
      <trkpt lat="45.002976" lon="7.121217">
        <time>1970-01-01T00:00:00+00:00</time>
        <ele>1012.0</ele>
      </trkpt>
      <trkpt lat="45.003048" lon="7.121303">
        <time>1970-01-01T00:00:00+00:00</time>
        <ele>1008.0</ele>
      </trkpt>
      <trkpt lat="45.003101" lon="7.121286">
        <time>1970-01-01T00:00:00+00:00</time>
        <ele>1010.0</ele>
      </trkpt>
      <trkpt lat="45.003132" lon="7.12119">
        <time>1970-01-01T00:00:00+00:00</time>
        <ele>1017.0</ele>
      </trkpt>
      <trkpt lat="45.003204" lon="7.121147">
        <time>1970-01-01T00:00:00+00:00</time>
        <ele>1020.0</ele>
      </trkpt>
      <trkpt lat="45.003287" lon="7.121372">
        <time>1970-01-01T00:00:00+00:00</time>
        <ele>1008.0</ele>
      </trkpt>
      <trkpt lat="45.003336" lon="7.12141">
        <time>1970-01-01T00:00:00+00:00</time>
        <ele>1006.0</ele>
      </trkpt>
      <trkpt lat="45.003443" lon="7.121319">
        <time>1970-01-01T00:00:00+00:00</time>
        <ele>1011.0</ele>
      </trkpt>
      <trkpt lat="45.003488" lon="7.121356">
        <time>1970-01-01T00:00:00+00:00</time>
        <ele>1008.0</ele>
      </trkpt>
      <trkpt lat="45.003484" lon="7.12164">
        <time>1970-01-01T00:00:00+00:00</time>
        <ele>994.0</ele>
      </trkpt>
      <trkpt lat="45.003572" lon="7.121732">
        <time>1970-01-01T00:00:00+00:00</time>
        <ele>987.0</ele>
      </trkpt>
      <trkpt lat="45.003902" lon="7.121877">
        <time>1970-01-01T00:00:00+00:00</time>
        <ele>974.0</ele>
      </trkpt>
      <trkpt lat="45.003977" lon="7.121962">
        <time>1970-01-01T00:00:00+00:00</time>
        <ele>969.0</ele>
      </trkpt>
      <trkpt lat="45.003966" lon="7.122043">
        <time>1970-01-01T00:00:00+00:00</time>
        <ele>966.0</ele>
      </trkpt>
      <trkpt lat="45.003792" lon="7.122322">
        <time>1970-01-01T00:00:00+00:00</time>
        <ele>958.0</ele>
      </trkpt>
      <trkpt lat="45.003678" lon="7.122767">
        <time>1970-01-01T00:00:00+00:00</time>
        <ele>939.0</ele>
      </trkpt>
      <trkpt lat="45.00369" lon="7.122783">
        <time>1970-01-01T00:00:00+00:00</time>
        <ele>938.0</ele>
      </trkpt>
      <trkpt lat="45.003766" lon="7.12276">
        <time>1970-01-01T00:00:00+00:00</time>
        <ele>937.0</ele>
      </trkpt>
      <trkpt lat="45.00377" lon="7.122813">
        <time>1970-01-01T00:00:00+00:00</time>
        <ele>934.0</ele>
      </trkpt>
      <trkpt lat="45.003632" lon="7.1231">
        <time>1970-01-01T00:00:00+00:00</time>
        <ele>924.0</ele>
      </trkpt>
      <trkpt lat="45.003499" lon="7.123341">
        <time>1970-01-01T00:00:00+00:00</time>
        <ele>917.0</ele>
      </trkpt>
      <trkpt lat="45.003435" lon="7.123384">
        <time>1970-01-01T00:00:00+00:00</time>
        <ele>916.0</ele>
      </trkpt>
      <trkpt lat="45.003344" lon="7.123384">
        <time>1970-01-01T00:00:00+00:00</time>
        <ele>916.0</ele>
      </trkpt>
      <trkpt lat="45.003177" lon="7.123518">
        <time>1970-01-01T00:00:00+00:00</time>
        <ele>918.0</ele>
      </trkpt>
      <trkpt lat="45.003113" lon="7.123593">
        <time>1970-01-01T00:00:00+00:00</time>
        <ele>922.0</ele>
      </trkpt>
      <trkpt lat="45.003257" lon="7.124038">
        <time>1970-01-01T00:00:00+00:00</time>
        <ele>908.0</ele>
      </trkpt>
      <trkpt lat="45.003317" lon="7.124301">
        <time>1970-01-01T00:00:00+00:00</time>
        <ele>901.0</ele>
      </trkpt>
      <trkpt lat="45.003298" lon="7.124784">
        <time>1970-01-01T00:00:00+00:00</time>
        <ele>891.0</ele>
      </trkpt>
      <trkpt lat="45.003363" lon="7.125084">
        <time>1970-01-01T00:00:00+00:00</time>
        <ele>881.0</ele>
      </trkpt>
      <trkpt lat="45.003348" lon="7.12524">
        <time>1970-01-01T00:00:00+00:00</time>
        <ele>877.0</ele>
      </trkpt>
      <trkpt lat="45.003279" lon="7.125487">
        <time>1970-01-01T00:00:00+00:00</time>
        <ele>874.0</ele>
      </trkpt>
      <trkpt lat="45.003094" lon="7.125953">
        <time>1970-01-01T00:00:00+00:00</time>
        <ele>871.0</ele>
      </trkpt>
      <trkpt lat="45.002919" lon="7.126232">
        <time>1970-01-01T00:00:00+00:00</time>
        <ele>869.0</ele>
      </trkpt>
      <trkpt lat="45.002816" lon="7.126465">
        <time>1970-01-01T00:00:00+00:00</time>
        <ele>868.0</ele>
      </trkpt>
      <trkpt lat="45.002809" lon="7.126605">
        <time>1970-01-01T00:00:00+00:00</time>
        <ele>867.0</ele>
      </trkpt>
      <trkpt lat="45.002741" lon="7.12674">
        <time>1970-01-01T00:00:00+00:00</time>
        <ele>866.0</ele>
      </trkpt>
      <trkpt lat="45.002748" lon="7.126983">
        <time>1970-01-01T00:00:00+00:00</time>
        <ele>863.0</ele>
      </trkpt>
      <trkpt lat="45.002764" lon="7.12753">
        <time>1970-01-01T00:00:00+00:00</time>
        <ele>864.0</ele>
      </trkpt>
      <trkpt lat="45.00276" lon="7.127702">
        <time>1970-01-01T00:00:00+00:00</time>
        <ele>866.0</ele>
      </trkpt>
      <trkpt lat="45.002798" lon="7.127865">
        <time>1970-01-01T00:00:00+00:00</time>
        <ele>867.0</ele>
      </trkpt>
      <trkpt lat="45.003077" lon="7.127662">
        <time>1970-01-01T00:00:00+00:00</time>
        <ele>866.0</ele>
      </trkpt>
      <trkpt lat="45.003438" lon="7.127356">
        <time>1970-01-01T00:00:00+00:00</time>
        <ele>867.0</ele>
      </trkpt>
      <trkpt lat="45.003664" lon="7.127015">
        <time>1970-01-01T00:00:00+00:00</time>
        <ele>869.0</ele>
      </trkpt>
    </trkseg>
  </trk>
</gpx>
